GLOBALSTAR M001 1 25162U 98008A 25259.72389368 -.00000070 00000+0 20581-3 0 9996 2 25162 52.0031 66.7952 0002321 88.7972 284.3407 12.38217453255054 GLOBALSTAR M004 1 25163U 98008B 25260.10535786 -.00000060 00000+0 24280-3 0 9997 2 25163 51.9992 133.7312 0003545 122.9742 41.6766 12.63403257273306 GLOBALSTAR M002 1 25164U 98008C 25260.24658848 -.00000077 00000+0 -13548-4 0 9993 2 25164 52.0053 9.3796 0000855 331.6086 28.4687 11.61511869194765 GLOBALSTAR M003 1 25165U 98008D 25259.76398572 -.00000170 00000+0 -85819-3 0 9997 2 25165 51.9943 274.8936 0008294 115.2180 55.8392 12.12060728244328 GLOBALSTAR M014 1 25306U 98023A 25260.05120328 -.00000076 00000+0 30377-4 0 9991 2 25306 51.9838 291.1660 0001045 159.5038 213.9367 11.65481707201888 GLOBALSTAR M006 1 25307U 98023B 25260.29645940 -.00000059 00000+0 34048-3 0 9999 2 25307 51.9978 346.4596 0002611 267.5570 126.2531 11.58175766227500 GLOBALSTAR M015 1 25308U 98023C 25260.04120588 -.00000103 00000+0 -67444-3 0 9996 2 25308 51.9809 89.7731 0011738 237.7511 294.3273 11.48858867204634 GLOBALSTAR M008 1 25309U 98023D 25259.87656642 -.00000049 00000+0 37271-3 0 9994 2 25309 51.9967 292.2256 0002619 14.8461 155.8621 12.36072305249189 GLOBALSTAR M023 1 25621U 99004A 25260.13711721 -.00000042 00000+0 34153-3 0 9991 2 25621 52.0093 133.4518 0010008 334.1572 194.0573 12.62506446227349 GLOBALSTAR M040 1 25622U 99004B 25260.14817017 -.00000084 00000+0 11257-3 0 9994 2 25622 51.9905 137.7088 0000191 158.9380 9.2318 12.62017063226862 GLOBALSTAR M036 1 25623U 99004C 25260.26971895 -.00000047 00000+0 51783-3 0 9990 2 25623 52.0001 357.6097 0010642 224.4966 150.5759 11.86608700189918 GLOBALSTAR M038 1 25624U 99004D 25260.15986571 -.00000096 00000+0 -99942-5 0 9992 2 25624 51.9965 166.7003 0001126 251.7385 260.2183 12.32532067213717 GLOBALSTAR M022 1 25649U 99012A 25260.11572228 -.00000112 00000+0 -30183-3 0 9993 2 25649 52.0059 40.9943 0002575 13.7343 157.5415 12.02502533187432 GLOBALSTAR M041 1 25650U 99012B 25260.09743138 -.00000102 00000+0 -21308-3 0 9990 2 25650 52.0016 285.3036 0001533 134.7500 225.3461 11.96682648189285 GLOBALSTAR M046 1 25651U 99012C 25260.23984156 -.00000089 00000+0 -75012-5 0 9991 2 25651 52.0089 347.4352 0002501 86.4693 300.5031 12.09413578194801 GLOBALSTAR M037 1 25652U 99012D 25260.00777161 -.00000061 00000+0 23930-3 0 9992 2 25652 51.9989 264.4316 0002205 34.7851 343.5226 12.62451276222878 GLOBALSTAR M045 1 25676U 99019A 25259.58270845 -.00000072 00000+0 18766-3 0 9996 2 25676 51.9986 44.7693 0000990 84.6457 354.9779 12.27065968204614 GLOBALSTAR M019 1 25677U 99019B 25260.18119275 -.00000074 00000+0 16864-3 0 9993 2 25677 51.9872 179.9055 0001337 116.9221 35.2671 12.13877392196310 GLOBALSTAR M044 1 25678U 99019C 25260.07286127 -.00000004 00000+0 11146-2 0 9993 2 25678 51.9954 143.0635 0005408 214.5582 293.7398 11.90258553182268 GLOBALSTAR M042 1 25679U 99019D 25260.18187726 -.00000075 00000+0 16489-3 0 9995 2 25679 52.0001 151.2507 0003369 116.2711 50.4605 12.22087481196506 GLOBALSTAR M025 1 25770U 99031A 25260.10050049 -.00000067 00000+0 65188-7 0 9995 2 25770 51.9829 306.3510 0001889 297.2887 82.5411 11.22558966492038 GLOBALSTAR M049 1 25771U 99031B 25260.20796271 .00000025 00000+0 31391-2 0 9998 2 25771 51.9920 345.4894 0003208 162.9341 197.1564 11.12121394127666 GLOBALSTAR M047 1 25772U 99031C 25260.25417521 -.00000056 00000+0 39032-3 0 9998 2 25772 51.9866 333.5582 0016563 62.0749 298.1732 11.31929564481532 GLOBALSTAR M052 1 25773U 99031D 25259.94493978 -.00000084 00000+0 -62475-3 0 9992 2 25773 51.9847 93.4643 0002397 347.1911 118.4665 11.15060761488746 GLOBALSTAR M035 1 25851U 99037A 25260.27768152 -.00000080 00000+0 -60213-3 0 9996 2 25851 51.9927 209.5939 0013394 128.8914 43.6664 11.04539620106430 GLOBALSTAR M032 1 25852U 99037B 25260.06728324 -.00000036 00000+0 97612-3 0 9994 2 25852 51.9986 28.9210 0011891 323.0554 36.9426 11.19063491145078 GLOBALSTAR M051 1 25853U 99037C 25260.11797963 -.00000073 00000+0 -25062-4 0 9999 2 25853 51.9781 179.1197 0001110 35.1735 324.9149 11.42205651142891 GLOBALSTAR M030 1 25854U 99037D 25260.24306758 -.00000054 00000+0 45226-3 0 9993 2 25854 51.9912 339.0721 0003198 203.7800 156.2870 11.55113603160685 GLOBALSTAR M048 1 25872U 99041A 25259.99721038 -.00000065 00000+0 12348-3 0 9991 2 25872 51.9347 117.9951 0013472 347.9122 161.0431 11.33859111135393 GLOBALSTAR M026 1 25873U 99041B 25260.16532925 .00000033 00000+0 35738-2 0 9999 2 25873 52.0041 326.8383 0001809 72.4723 310.0223 11.06850632158675 GLOBALSTAR M043 1 25874U 99041C 25260.27951645 -.00000074 00000+0 -17683-3 0 9993 2 25874 51.9373 228.6379 0013506 106.7128 32.5467 11.25696283133246 GLOBALSTAR M028 1 25875U 99041D 25260.06550232 -.00000050 00000+0 32345-3 0 9993 2 25875 51.9617 279.1015 0063130 270.9176 88.4452 12.50588036201673 GLOBALSTAR M024 1 25883U 99043A 25260.24438654 -.00000012 00000+0 18589-2 0 9998 2 25883 52.0000 172.9089 0000783 272.3411 258.6583 11.10166435125080 GLOBALSTAR M027 1 25884U 99043B 25260.00414927 -.00000083 00000+0 -74690-3 0 9995 2 25884 52.0184 254.0362 0021287 139.1740 221.0652 11.04372531151389 GLOBALSTAR M054 1 25885U 99043C 25260.24463053 -.00000039 00000+0 81038-3 0 9990 2 25885 52.0180 5.3492 0004854 337.3269 38.4150 11.39220854129540 GLOBALSTAR M053 1 25886U 99043D 25260.16444708 -.00000054 00000+0 43940-3 0 9995 2 25886 52.0007 317.7434 0003332 234.4268 158.8959 11.27666686129820 GLOBALSTAR M058 1 25907U 99049A 25260.03747568 -.00000083 00000+0 25906-4 0 9996 2 25907 51.9922 223.9094 0002434 83.3619 276.7493 11.93202903552500 GLOBALSTAR M050 1 25908U 99049B 25260.28667142 -.00000128 00000+0 -45328-3 0 9993 2 25908 51.9971 224.0390 0008739 215.3829 292.4858 12.07456854159314 GLOBALSTAR M033 1 25909U 99049C 25259.84273897 -.00000056 00000+0 33994-3 0 9999 2 25909 51.9898 90.7569 0014838 92.1098 268.1449 12.20298057546933 GLOBALSTAR M055 1 25910U 99049D 25259.96362013 -.00000070 00000+0 20590-3 0 9997 2 25910 52.0003 96.6970 0006635 329.5706 30.4760 12.29432240179576 GLOBALSTAR M057 1 25943U 99058A 25260.00259429 -.00000087 00000+0 53073-4 0 9997 2 25943 51.9973 87.6302 0002343 182.8336 177.2501 12.24826821178182 GLOBALSTAR M059 1 25944U 99058B 25260.21115870 .00000008 00000+0 11676-2 0 9995 2 25944 52.0037 318.2211 0000750 128.8530 265.6405 11.99986899585094 GLOBALSTAR M056 1 25945U 99058C 25260.17576168 -.00000090 00000+0 -29450-4 0 9996 2 25945 51.9983 317.9165 0000835 26.4647 7.7303 12.04778988173712 GLOBALSTAR M031 1 25946U 99058D 25260.24417133 -.00000092 00000+0 -14955-4 0 9997 2 25946 51.9952 204.5434 0001753 16.8438 131.5485 12.16040472175745 GLOBALSTAR M039 1 25961U 99062A 25260.25131199 -.00000070 00000+0 18635-3 0 9998 2 25961 51.9874 348.3065 0002780 180.0047 180.0820 12.62332228191848 GLOBALSTAR M034 1 25962U 99062B 25259.99633299 -.00000058 00000+0 37083-3 0 9990 2 25962 51.9857 132.7362 0013415 213.0652 256.7544 11.79448540149222 GLOBALSTAR M029 1 25963U 99062C 25260.25302753 -.00000078 00000+0 10514-3 0 9992 2 25963 51.9791 206.0607 0002475 310.8811 197.9081 11.99900978180175 GLOBALSTAR M061 1 25964U 99062D 25260.10081921 -.00000038 00000+0 69968-3 0 9991 2 25964 51.9813 317.7230 0006281 137.2530 232.4862 11.76776501132000 GLOBALSTAR M063 1 26081U 00008A 25260.00516031 -.00000074 00000+0 12456-3 0 9998 2 26081 51.9932 229.7552 0004492 129.4798 274.2326 11.86176069168476 GLOBALSTAR M062 1 26082U 00008B 25260.26329795 -.00000079 00000+0 13798-3 0 9991 2 26082 51.9839 185.0129 0007066 313.1124 212.7327 12.43472221508077 GLOBALSTAR M060 1 26083U 00008C 25260.10032144 -.00000193 00000+0 -10104-2 0 9999 2 26083 52.0012 158.5036 0003270 324.8335 176.2660 12.17664196163561 GLOBALSTAR M064 1 26084U 00008D 25260.23240236 -.00000051 00000+0 46119-3 0 9995 2 26084 52.0055 326.9031 0001376 218.9958 141.0776 11.88536464178044 GLOBALSTAR M065 1 31571U 07020A 25260.17176914 -.00000111 00000+0 -38042-4 0 9992 2 31571 51.9904 306.2962 0010380 150.7851 246.5067 12.62010241845022 GLOBALSTAR M069 1 31573U 07020C 25260.15401485 -.00000056 00000+0 33427-3 0 9994 2 31573 52.0040 304.9147 0001454 308.9495 84.9067 12.23462157845387 GLOBALSTAR M072 1 31574U 07020D 25260.04801302 -.00000073 00000+0 15379-3 0 9990 2 31574 51.9913 107.4139 0001649 113.3449 47.2926 11.91651804842415 GLOBALSTAR M071 1 31576U 07020F 25260.26078872 .00000002 00000+0 91836-3 0 9997 2 31576 52.0086 332.8268 0000379 285.7763 109.4713 12.18258062506162 GLOBALSTAR M067 1 32263U 07048A 25260.03311336 -.00000089 00000+0 63617-4 0 9994 2 32263 51.9710 127.1824 0001120 133.9987 14.1741 12.40677783820889 GLOBALSTAR M070 1 32264U 07048B 25260.24096637 -.00000100 00000+0 23724-4 0 9991 2 32264 51.9740 208.0684 0000572 40.2730 106.3381 12.62322573825294 GLOBALSTAR M066 1 32265U 07048C 25260.05889806 -.00000089 00000+0 43760-4 0 9997 2 32265 51.9576 121.9806 0004411 179.4575 333.8488 12.30376680826603 GLOBALSTAR M068 1 32266U 07048D 25260.06699883 -.00000078 00000+0 14107-3 0 9993 2 32266 51.9910 22.1735 0000874 22.6389 148.4413 12.62828458829162 GLOBALSTAR M079 1 37188U 10054A 25260.28694230 -.00000095 00000+0 49154-4 0 9997 2 37188 52.0025 219.4199 0000589 88.7678 58.9063 12.62266760688083 GLOBALSTAR M074 1 37189U 10054B 25260.06069404 -.00000105 00000+0 -44152-5 0 9990 2 37189 52.0001 219.4178 0000298 71.2835 6.8405 12.62271342688662 GLOBALSTAR M076 1 37190U 10054C 25259.99693441 -.00000094 00000+0 53330-4 0 9999 2 37190 52.0016 219.7913 0000393 106.6776 281.4254 12.62265327688370 GLOBALSTAR M077 1 37191U 10054D 25260.24918556 -.00000101 00000+0 16292-4 0 9992 2 37191 52.0066 175.8901 0000594 66.6632 99.5248 12.62323399688773 GLOBALSTAR M075 1 37192U 10054E 25260.01015809 -.00000075 00000+0 16254-3 0 9994 2 37192 51.9931 261.9579 0000292 87.3837 301.5730 12.62267748687443 GLOBALSTAR M073 1 37193U 10054F 25260.28066975 -.00000110 00000+0 -35839-4 0 9996 2 37193 52.0052 175.0227 0000650 82.5894 95.8881 12.62262539689460 GLOBALSTAR M083 1 37739U 11033A 25260.13527028 -.00000094 00000+0 56898-4 0 9993 2 37739 51.9844 124.0703 0000919 81.0364 96.5704 12.62275721658465 GLOBALSTAR M088 1 37740U 11033B 25260.10788872 -.00000105 00000+0 -58361-5 0 9990 2 37740 52.0235 29.9166 0000729 90.5606 82.1587 12.62267816654004 GLOBALSTAR M091 1 37741U 11033C 25260.24667400 -.00000099 00000+0 26670-4 0 9997 2 37741 52.0010 352.8633 0000811 93.7672 291.3343 12.62259950654816 GLOBALSTAR M085 1 37742U 11033D 25260.15652060 -.00000079 00000+0 13798-3 0 9998 2 37742 52.0129 304.1950 0000621 91.8450 302.8035 12.62264740655317 GLOBALSTAR M081 1 37743U 11033E 25260.18324197 -.00000077 00000+0 15145-3 0 9995 2 37743 51.9966 306.8619 0000596 113.0158 282.2933 12.62268211655460 GLOBALSTAR M089 1 37744U 11033F 25260.06540841 -.00000074 00000+0 16752-3 0 9991 2 37744 51.9915 261.4288 0000131 135.5476 264.8865 12.62266781656292 GLOBALSTAR M084 1 38040U 11080A 25260.10606977 -.00000107 00000+0 -18118-4 0 9998 2 38040 51.9994 128.6406 0000481 89.9852 74.9300 12.62268881634274 GLOBALSTAR M080 1 38041U 11080B 25260.07464495 -.00000097 00000+0 40605-4 0 9995 2 38041 52.0046 130.3607 0001066 52.8324 98.4558 12.62269006634390 GLOBALSTAR M082 1 38042U 11080C 25260.01421032 -.00000089 00000+0 83784-4 0 9996 2 38042 52.0065 86.0130 0001115 68.4402 98.9587 12.62268699635097 GLOBALSTAR M092 1 38043U 11080D 25260.03330172 -.00000106 00000+0 -11873-4 0 9994 2 38043 52.0077 176.3389 0000563 63.0630 310.2796 12.62265892633553 GLOBALSTAR M090 1 38044U 11080E 25259.76914841 -.00000103 00000+0 36688-5 0 9992 2 38044 52.0116 80.6260 0000980 87.2137 285.7334 12.62262390635181 GLOBALSTAR M086 1 38045U 11080F 25259.81427866 -.00000092 00000+0 63383-4 0 9993 2 38045 51.9890 80.8630 0001401 133.6935 328.8631 12.62276954635138 GLOBALSTAR M097 1 39072U 13005A 25260.29405691 -.00000107 00000+0 -18702-4 0 9992 2 39072 52.0073 354.0482 0000761 107.3182 252.7768 12.62265624582448 GLOBALSTAR M093 1 39073U 13005B 25260.26801375 -.00000092 00000+0 68010-4 0 9998 2 39073 52.0134 347.3712 0000961 106.1362 253.9611 12.62264321582394 GLOBALSTAR M094 1 39074U 13005C 25260.18861583 -.00000084 00000+0 10930-3 0 9995 2 39074 51.9945 262.0010 0000567 92.3168 267.7764 12.62269921583999 GLOBALSTAR M096 1 39075U 13005D 25260.20177719 -.00000084 00000+0 10882-3 0 9996 2 39075 52.0082 310.5486 0000665 99.8554 260.2387 12.62266781582911 GLOBALSTAR M078 1 39076U 13005E 25259.70058381 -.00000096 00000+0 43958-4 0 9997 2 39076 51.9892 36.4569 0001264 54.2043 305.8941 12.62260117581478 GLOBALSTAR M095 1 39077U 13005F 25260.04330983 -.00000109 00000+0 -27583-4 0 9990 2 39077 52.0100 32.6286 0001197 83.7484 276.3520 12.62259806581375 GLOBALSTAR M087 1 52888U 22064A 25258.94863758 -.00000100 00000+0 21347-4 0 9999 2 52888 51.9987 177.3626 0000808 63.4851 296.6099 12.62301412156507